THORAD AGENA D DEB, 14466

Orbit data source: Space-Track

THORAD AGENA D DEB, 14466 is space debris in SSO originally from a launch on Wed, 08 Apr 1970 UTC launched from the Air Force Western Test Range (AFWTR). Debris objects in space refer to the collection of defunct objects orbiting the Earth. Examples of debris include non-operational satellites, rocket bodies, and fragments generated from explosions, collisions, or faulty payload assembly.

Loading next visibility...
Identifier
14466, 1970-025NS
Orbit
SSO
Country
Flag of USUS
Related business
Manufacturer
Unknown
Mission
Spacecraft
Bus & Motor
Unknown
Mass
Unknown
Launch date (UTC)
1970-04-08 (56 years ago)
Launch vehicle
Unknown
Launch site
Air Force Western Test Range (AFWTR)
Object type
Payload
Rocket body
Debris
Shape & HBR
Unknown shape, 0.1 m
Radar Cross Section
Small (<0.1 m²)

Expand to show TLE details & history
Last TLE update: 17 hours ago

TLE from 17 hours ago
0 THORAD AGENA D DEB
1 14466U 70025NS  25289.06921848  .00012179  00000-0  27862-2 0  9996
2 14466  99.9692  66.9785 0047881 267.7761  91.7948 14.55140285276842
Epoch: 2025-10-16T01:39Z
TLE epoch observation values (Epoch: 2025-10-16T01:39:40.476Z)
Latitude
0.00002°
Longitude
17.22561°
Altitude
713.053 km
Speed
7.498 km/s
True Right ascension
04h 27m 54s
True Declination
0° 00' 00"
Sunlit
Object was in full shadow at epoch
Visualization orbit readout
Latitude
Unknown
Longitude
Unknown
Altitude
Unknown
Speed
Unknown
Apparent Right ascension
Unknown
Apparent Declination
Unknown
Sunlit
N/A
Visualization observer readout
Local Sidereal Time
12:57:04
Azimuth
Unknown
Elevation
Unknown
Doppler factor
Unknown
Orbital elements
Apogee altitude
740.006 km
Perigee altitude
672.167 km
Semi-major axis
7,084.223 km
Eccentricity
0.00479
Inclination
99.9692°
RAAN
66.9785°
Arg. of periapsis
267.7761°
True anomaly
92.3431°
Mean anomaly
91.7948°
Eccentric anomaly
92.06896°
Mean motion
3.64003 °/min
Orbital period
98.9 mins
BSTAR
0.0027862

Documentation

Showing up to 5 results
|